PEGASUS DEB

Satellite information

Favourite Embed

Satellite Type and Status

DEBRISIN ORBIT

Key statistics

Satellite PEGASUS DEB at a glance.

Uptime

11432

Days in orbit

Revolutions

≈ 14.6

Per day

Orbit

LEO

Low Earth Orbit

Inclination

82.0

Latest

Satellite identification and parameters

Extended collection of information and parameters for PEGASUS DEB.

Object identification

Identified? True

Debris? True

Object name: PEGASUS DEB

International designator: 1994-029AEQ

Object number (NORAD): 29033

Object ID (CCSDS): 29033

Country: UNITED STATES OF AMERICA (US)

Current information (Y/N): Y

RCS size: SMALL

Orbital parameters

Period: 98.334 minutes

Inclination: 81.9632 deg

SMA: 7057.169 km

Apoapsis: 805.823 km

Periapsis: 552.246 km

RAAN: 230.5594 deg

Eccentricy: 0.01796591

Argument of periapsis: 222.2645 deg

Mean anomaly: 136.4599 deg

Mean motion: 14.64390709 rev/day

Mean motion (dot): 0.00014674 rev/day2

B* drag term: 0.0021851783 1/REarth

Two-line elements (TLE)

Creation date: Sept. 4, 2025, 4:29 a.m.

Reference frame: TEME

Reference center: EARTH

Epoch: Sept. 3, 2025, 9:21 a.m. UTC

TLE line 0: 0 PEGASUS DEB

TLE line 1: 1 29033U 94029AEQ 25246.38973397 .00014674 00000-0 21852-2 0 9991

TLE line 2: 2 29033 81.9632 230.5594 0179659 222.2645 136.4599 14.64390709187013

Live tracking on map

Real-time ground track for satellite PEGASUS DEB.

In-orbit conjunctions

A list of the most updated potential collisions computed for object PEGASUS DEB.

Target Orbit TCA Probability of collision Miss distance Type
CZ-4 DEB SSO 2025-05-29 11:07:41 0.0002166058 76.0 (m) DEBRIS
DTUSAT SSO 2025-05-22 23:05:39 0.0002184941 305.0 (m) PAYLOAD
SL-19 R/B SSO 2024-12-21 00:57:52 0.0001106355 415.0 (m) ROCKET BODY
FENGYUN 1C DEB SSO 2024-11-15 03:22:49 0.0001023361 215.0 (m) DEBRIS
DTUSAT SSO 2024-07-24 17:29:53 0.0001015566 418.0 (m) PAYLOAD

Associated space launch

PEGASUS DEB was lifted into orbit during the mission ‘Pegasus HAPS | Space Test Experiments Platform 2 (STEP-2)’, on board a Pegasus HAPS space rocket.

The launch took place on May 19, 1994, 5:03 p.m. from Edwards Air Force Base.

For more information about the launch, click the button.

Launch to space Pegasus HAPS | Space Test Experiments Platform 2 (STEP-2)
Pegasus HAPS | Space Test Experiments Platform 2 (STEP-2)

Agency: N/A

Status: Launch Successful

Launch date: May 19, 1994, 5:03 p.m. UTC

Rocket: Pegasus HAPS

Launch pad: Edwards Air Force Base

Location: Air launch to orbit

...

Latest news about this satellite

There are no fresh news available about this satellite. Check back as we update our databases every day.


Newsletter sign-up

Weekly statistics, charts and insights to help you stay on top of the space industry.